DECAYED

CZ-6A DEB, 61156 (Decayed)

Orbit data source: Space-Track

CZ-6A DEB, 61156 was space debris in LEO originally from a launch on Tue, 06 Aug 2024 UTC launched from the Taiyaun Space Center, China (TSC). Debris objects in space refer to the collection of defunct objects orbiting the Earth. Examples of debris include non-operational satellites, rocket bodies, and fragments generated from explosions, collisions, or faulty payload assembly.

Not visible in the next 10 days
Identifier
61156, 2024-140RA
Orbit
Decayed
Country
Flag of CNCN / PRC
Related business
Manufacturer
SAST
Mission
Decayed spacecraft
Bus & Motor
Unknown
Mass
Unknown
Launch date (UTC)
2024-08-06 (2 years ago)
Launch vehicle
Unknown
Launch site
Taiyaun Space Center, China (TSC)
Object type
Payload
Rocket body
Debris
Shape & HBR
Unknown shape, 0.1 m
Radar Cross Section
Small (<0.1 m²)

Expand to show TLE details & history
Last TLE update: 2 weeks ago

TLE from 2 weeks ago
0 CZ-6A DEB
1 61156U 24140RA  26117.46599246  .02757085  00000-0  12774-1 0  9998
2 61156  89.1236 290.3328 0027440 281.5149  78.3048 15.79503470 91555
Epoch: 2026-04-27T11:11Z
TLE epoch observation values (Epoch: 2026-04-27T11:11:01.748Z)
Latitude
-0.00001°
Longitude
-92.87974°
Altitude
331.44 km
Speed
7.712 km/s
True Right ascension
19h 21m 19s
True Declination
0° 00' 00"
Sunlit
Object was in daylight at epoch
Visualization orbit readout
Latitude
Unknown
Longitude
Unknown
Altitude
Unknown
Speed
Unknown
Apparent Right ascension
Unknown
Apparent Declination
Unknown
Sunlit
N/A
Visualization observer readout
Local Sidereal Time
21:27:42
Azimuth
Unknown
Elevation
Unknown
Doppler factor
Unknown
Orbital elements
Apogee altitude
346.975 km
Perigee altitude
310.169 km
Semi-major axis
6,706.709 km
Eccentricity
0.00274
Inclination
89.1236°
RAAN
290.3328°
Arg. of periapsis
281.5149°
True anomaly
78.61292°
Mean anomaly
78.3048°
Eccentric anomaly
78.45884°
Mean motion
3.95165 °/min
Orbital period
91.1 mins
BSTAR
0.012774
Loading maneuver chart data...
Computing Atmospheric mass density...
Loading historical data...
Loading historical data...
Loading historical data...
Loading historical data...
Loading historical data...
Loading historical data...
Loading historical data...

Documentation

Showing up to 5 results
|